Wind_Speed
20 18 16 15 16 15 15 16 16 15 14 15 15 15 13 11 9 14 11 8 6 8 4 4 3 8 11 13 14 16 13 19 27 22 19 14 19 23 20 20 14 14 8 2 15
19 18 16 16 15 16 16 17 17 16 17 17 14 14 13 12 13 7 3 2 3 3 1 3 6 8 15 15 14 15 16 24 17 20 16 16 19 24 20 23 22 24 7 9 15
19 18 18 17 18 18 20 20 19 17 19 17 17 14 13 11 7 3 3 3 6 3 3 4 5 8 15 15 20 17 21 18 17 13 17 16 15 16 17 19 26 24 21 15 16
20 19 17 18 19 20 21 21 20 20 18 17 17 13 10 5 4 3 3 2 5 2 3 4 7 11 11 17 20 17 17 23 12 20 15 17 16 16 20 15 11 4 4 16 18
21 18 17 18 20 22 22 24 22 20 19 17 11 8 7 4 2 4 6 3 3 1 3 4 7 8 11 11 17 16 20 17 21 11 16 14 15 18 20 21 9 2 1 14 16
20 18 17 18 20 22 24 25 24 19 15 11 8 6 3 1 0 2 3 5 5 2 2 3 3 6 6 11 13 9 22 17 23 20 19 17 20 22 20 22 15 9 9 11 17
19 17 17 17 19 21 24 27 23 16 12 11 7 3 1 4 3 2 6 4 8 9 5 4 1 6 3 7 17 10 12 16 21 19 17 16 21 28 26 16 14 10 7 5 15
19 17 17 18 20 21 22 27 20 10 11 10 8 3 1 2 1 5 6 5 5 9 9 5 2 4 8 3 9 15 15 16 18 21 21 18 23 22 28 26 24 19 12 8 8
18 17 17 18 21 20 21 24 19 7 11 6 6 1 5 5 4 5 5 5 3 4 10 3 5 8 7 11 9 11 13 20 18 18 21 21 12 24 20 25 22 23 19 13 10
24 15 15 17 20 20 21 19 17 6 9 5 6 3 2 8 8 8 3 2 3 8 8 9 9 10 10 8 9 9 13 7 16 16 20 23 23 16 11 21 24 19 20 17 13
26 15 14 16 20 19 21 15 9 1 2 3 5 3 5 10 4 2 2 3 4 9 10 8 9 11 9 7 7 6 7 8 8 2 11 19 22 21 25 11 16 19 17 17 19
28 13 13 16 18 18 16 9 7 6 5 3 4 6 5 6 9 2 5 7 7 9 5 7 11 8 6 8 9 10 11 10 9 13 10 13 19 19 19 22 22 17 18 18 19
28 11 11 16 14 17 10 8 6 2 5 1 3 4 4 6 14 3 5 6 9 5 10 14 2 1 10 10 11 11 11 7 9 4 9 12 16 18 22 23 26 22 17 18 24
28 10 10 17 11 17 9 15 5 2 4 5 1 1 3 15 4 8 7 8 6 9 11 9 8 7 8 11 9 12 7 10 10 9 12 15 7 24 22 23 21 26 20 21 27
26 8 11 14 15 12 17 14 1 0 3 8 5 4 13 14 13 3 0 7 12 10 8 3 6 8 11 9 8 9 4 8 10 10 12 11 7 14 24 22 23 22 25 23 27
21 8 12 15 15 19 20 10 1 4 4 7 9 17 17 15 5 6 3 3 9 10 16 18 5 8 9 4 7 4 8 9 9 9 12 16 14 12 18 27 25 25 28 26 27
19 6 12 15 12 17 19 3 3 4 12 7 16 19 19 10 10 4 8 7 5 5 12 18 18 13 11 11 7 12 10 7 7 8 12 18 12 19 18 24 26 26 31 30 29
18 5 9 17 19 17 9 5 3 7 8 15 14 16 8 11 7 7 7 10 6 8 9 6 8 21 15 18 11 16 13 6 8 12 13 8 13 12 19 13 30 31 31 30 31
18 4 5 18 19 15 8 4 5 9 13 13 16 5 10 11 5 9 10 11 2 13 7 3 4 7 6 13 18 13 16 11 9 16 9 14 17 13 18 18 18 29 32 32 31
18 3 5 20 16 8 4 3 5 6 12 10 7 2 9 11 5 12 9 4 3 11 13 2 5 8 7 11 14 13 12 10 8 8 14 13 20 12 20 16 22 27 29 35 35
14 3 9 17 9 7 3 5 7 9 10 5 12 8 10 5 8 6 6 5 6 8 11 6 6 6 5 14 16 10 12 13 12 13 11 16 15 17 14 19 24 25 34 38 38
10 3 13 13 3 4 4 8 6 9 8 8 8 10 9 12 5 7 6 7 9 5 7 12 6 10 13 11 14 18 19 20 10 16 15 15 11 18 17 16 25 28 36 41 41
14 5 9 10 4 6 10 5 5 10 11 5 7 8 17 6 7 7 7 7 8 5 2 7 7 7 3 0 9 14 22 19 19 12 15 14 9 6 21 13 30 32 37 41 44
10 5 5 6 4 7 9 6 8 11 14 7 14 14 14 20 16 6 4 5 8 6 11 4 9 12 11 4 4 24 22 22 20 16 17 19 3 10 12 17 25 31 41 40 40
11 5 3 6 5 12 9 6 13 12 6 13 7 14 21 12 17 4 5 4 13 12 6 7 8 16 20 18 14 14 26 27 24 25 16 21 4 10 16 15 23 37 35 37 36
10 8 7 18 11 12 3 7 11 15 8 9 11 20 20 17 10 22 16 5 6 10 12 8 6 13 18 2 6 12 20 25 24 22 25 23 20 14 14 20 27 26 37 41 40
11 9 5 7 8 7 6 9 14 17 11 12 16 19 18 21 32 25 15 8 8 4 4 5 5 5 5 8 8 6 19 20 21 23 23 24 19 7 12 13 22 25 31 40 40
Wind_Direction
1 1 0 360 359 359 353 345 345 344 342 339 335 334 330 326 326 322 293 255 266 282 251 272 222 198 203 222 217 227 230 231 226 220 232 219 220 219 225 236 234 220 250 122 153
11 13 13 12 9 3 357 351 347 343 340 335 333 332 332 336 327 317 263 69 345 307 321 221 211 203 199 219 215 219 227 233 237 223 239 217 224 223 216 226 229 231 195 165 158
22 19 14 15 9 3 359 354 349 342 337 334 332 338 339 346 316 107 168 71 21 349 261 219 213 218 220 215 219 230 243 241 240 253 235 243 213 220 220 227 223 231 212 185 179
23 15 12 10 8 4 2 357 346 339 333 326 322 331 343 349 338 205 181 94 32 102 182 221 218 218 226 215 225 241 243 258 237 227 240 235 224 215 230 221 192 120 302 183 191
15 12 12 11 7 2 358 356 347 338 333 327 327 347 13 284 300 271 258 258 4 98 219 231 228 224 230 231 226 231 250 234 241 229 239 242 235 232 221 223 188 223 144 191 198
11 13 13 8 6 0 357 352 345 340 341 348 359 10 349 290 331 23 2 265 237 249 213 199 246 243 263 239 235 219 235 232 236 235 238 242 236 225 232 219 233 238 218 204 202
6 7 6 3 360 355 355 351 346 348 2 8 10 42 54 51 77 351 335 286 244 226 223 212 202 218 232 225 234 241 234 231 241 234 234 233 242 237 230 193 210 243 225 254 207
355 357 356 356 355 352 351 348 347 357 10 22 36 66 347 59 11 344 324 310 271 218 208 200 195 244 244 266 226 225 228 237 219 227 231 234 245 224 231 235 237 237 235 214 196
343 348 349 352 355 352 351 349 347 1 4 26 37 130 77 344 353 323 340 330 155 172 196 203 218 236 188 232 223 209 228 219 229 208 223 217 241 245 241 230 240 235 229 216 199
347 329 343 347 352 356 356 354 353 11 8 21 10 248 39 333 308 297 311 120 175 159 178 217 226 226 223 215 244 210 227 220 225 206 221 229 227 252 221 242 237 226 223 214 195
350 332 334 337 347 353 1 351 343 224 338 342 328 292 322 338 328 292 218 170 175 202 221 213 244 226 233 227 305 298 277 264 222 175 256 232 241 219 237 224 223 223 215 211 197
353 340 339 340 344 352 8 10 341 293 284 249 268 259 286 322 317 316 209 228 214 239 204 206 235 274 284 257 242 238 248 244 249 251 245 255 234 234 236 234 237 219 212 205 187
353 348 340 344 349 355 356 356 344 275 256 220 254 272 332 315 324 7 207 237 251 221 235 260 28 65 237 226 238 235 252 253 266 216 249 272 253 229 233 232 230 229 224 209 189
350 346 343 349 2 353 340 341 337 210 248 56 50 74 318 309 255 286 248 250 233 259 252 267 257 231 220 237 241 257 220 259 259 252 242 198 251 205 222 221 222 212 211 201 188
351 344 345 351 345 346 337 341 320 143 293 9 6 304 320 329 312 165 273 232 255 246 246 253 195 207 221 232 236 269 272 245 247 250 266 209 244 253 192 212 215 206 201 193 187
351 341 349 358 357 344 341 341 89 239 16 336 330 332 330 322 285 293 250 265 288 277 236 257 243 261 259 236 237 267 242 243 240 236 237 233 224 225 186 201 207 196 193 182 185
350 321 352 2 351 343 340 335 254 30 338 338 332 330 334 342 306 271 304 260 262 217 223 227 236 237 246 238 199 220 206 197 208 205 239 194 222 252 192 200 205 193 186 180 179
356 285 335 354 352 351 341 278 353 1 327 331 320 324 323 345 326 292 285 254 214 241 279 240 235 211 219 228 232 208 208 251 199 210 226 203 213 227 239 220 214 195 185 176 177
356 296 330 343 344 351 325 22 357 331 326 326 321 322 330 346 321 305 262 274 224 194 229 248 258 173 217 217 227 202 224 249 303 278 279 185 236 247 237 210 220 190 182 175 171
360 24 340 343 345 354 359 316 338 327 318 317 315 328 314 334 303 332 283 187 240 194 243 306 262 183 180 217 218 248 201 203 222 259 221 215 223 225 200 210 205 183 177 167 163
7 303 341 351 1 336 23 335 322 338 331 306 312 301 289 290 262 291 264 284 239 184 215 245 236 155 187 208 201 189 225 219 255 246 260 228 220 220 210 194 195 178 176 160 158
5 306 337 0 338 10 336 330 318 309 320 285 283 294 287 294 264 283 259 239 8 290 196 222 287 260 241 218 245 220 214 210 225 208 237 274 276 187 209 188 186 177 174 162 162
338 301 337 9 25 348 337 310 267 308 327 299 293 295 308 292 296 248 262 261 261 271 235 188 234 258 225 3 252 228 223 218 220 264 249 239 231 209 192 216 184 178 164 159 162
343 333 350 21 70 345 338 318 327 323 307 283 286 293 304 308 306 280 251 277 254 255 175 189 250 237 268 249 238 209 217 219 222 221 228 232 354 199 183 223 183 158 156 153 144
6 23 343 316 333 333 307 295 320 342 299 307 284 315 327 319 304 262 289 278 258 230 242 187 252 251 263 273 255 217 205 209 214 219 223 251 246 342 324 212 179 144 142 137 138
357 346 315 296 301 309 95 333 318 331 309 304 302 324 321 312 315 314 305 216 266 193 221 199 265 271 278 247 222 228 210 197 206 217 235 248 271 302 285 265 139 148 152 148 148
346 329 324 296 319 308 346 323 313 317 299 277 293 309 310 335 322 311 300 250 232 275 246 220 252 312 276 187 211 238 225 209 205 216 227 235 243 276 288 208 146 163 160 153 152
Height
1525 1522 1519 1516 1514 1511 1509 1506 1503 1500 1497 1495 1493 1490 1489 1487 1487 1487 1489 1488 1486 1484 1485 1488 1489 1489 1491 1492 1491 1492 1481 1464 1456 1461 1460 1461 1467 1466 1469 1470 1470 1472 1475 1478 1480
1524 1521 1518 1515 1513 1510 1508 1505 1502 1499 1496 1493 1491 1488 1487 1486 1485 1488 1486 1485 1485 1484 1488 1489 1489 1488 1487 1488 1488 1485 1473 1458 1454 1457 1459 1459 1465 1463 1466 1469 1469 1470 1475 1480 1482
1524 1521 1518 1516 1513 1510 1507 1504 1501 1498 1495 1492 1489 1487 1486 1484 1488 1487 1485 1485 1485 1484 1487 1488 1488 1487 1484 1484 1484 1481 1468 1462 1457 1464 1464 1460 1462 1460 1462 1460 1462 1464 1469 1478 1482
1525 1522 1519 1516 1513 1510 1507 1503 1500 1496 1493 1490 1488 1486 1484 1486 1482 1487 1484 1485 1486 1487 1488 1488 1487 1485 1480 1477 1480 1479 1473 1470 1464 1469 1468 1464 1463 1459 1463 1459 1461 1467 1471 1475 1479
1526 1523 1520 1516 1513 1509 1506 1502 1498 1494 1491 1487 1485 1485 1485 1488 1487 1485 1485 1486 1487 1488 1488 1487 1485 1482 1477 1475 1475 1477 1472 1474 1473 1468 1469 1466 1462 1462 1459 1462 1464 1469 1472 1474 1478
1527 1524 1520 1516 1513 1509 1505 1501 1497 1492 1489 1486 1484 1484 1487 1485 1486 1485 1485 1485 1487 1488 1488 1486 1484 1484 1479 1477 1475 1471 1472 1470 1470 1467 1467 1466 1461 1459 1459 1462 1465 1468 1469 1471 1474
1527 1523 1520 1517 1513 1509 1505 1500 1495 1491 1489 1486 1485 1485 1488 1489 1486 1486 1485 1485 1485 1486 1486 1486 1485 1484 1480 1476 1476 1473 1473 1471 1467 1465 1462 1465 1460 1449 1455 1456 1462 1465 1468 1469 1470
1526 1523 1519 1516 1512 1508 1504 1499 1494 1491 1489 1487 1486 1487 1489 1487 1486 1485 1485 1484 1481 1483 1485 1485 1484 1483 1480 1477 1475 1471 1470 1461 1456 1460 1459 1463 1446 1448 1452 1455 1458 1461 1464 1467 1469
1525 1521 1518 1514 1511 1507 1503 1498 1493 1490 1489 1488 1488 1488 1486 1486 1486 1485 1484 1484 1482 1483 1485 1485 1484 1480 1479 1472 1467 1461 1454 1456 1449 1450 1453 1454 1448 1445 1444 1447 1451 1454 1458 1461 1466
1522 1519 1516 1513 1509 1506 1501 1496 1492 1490 1489 1489 1488 1492 1487 1488 1485 1484 1483 1482 1482 1482 1484 1484 1480 1473 1468 1464 1455 1449 1454 1447 1447 1443 1448 1444 1448 1442 1444 1444 1446 1450 1453 1456 1463
1520 1516 1514 1511 1508 1504 1500 1496 1497 1494 1492 1491 1490 1488 1488 1487 1483 1483 1482 1482 1481 1480 1474 1478 1472 1465 1456 1460 1459 1460 1457 1450 1444 1443 1445 1440 1442 1439 1442 1443 1442 1445 1449 1452 1458
1517 1513 1512 1509 1506 1502 1499 1499 1498 1497 1491 1488 1487 1486 1485 1484 1481 1480 1482 1481 1478 1472 1474 1476 1468 1465 1467 1466 1466 1462 1459 1453 1449 1448 1450 1442 1438 1436 1436 1438 1440 1442 1445 1449 1453
1516 1512 1510 1508 1504 1501 1499 1498 1494 1493 1490 1486 1486 1485 1485 1485 1479 1478 1480 1477 1474 1473 1478 1468 1460 1470 1468 1465 1465 1459 1457 1452 1452 1444 1446 1446 1438 1433 1430 1433 1436 1439 1441 1444 1447
1514 1511 1509 1507 1504 1501 1499 1494 1492 1491 1483 1481 1482 1484 1484 1480 1476 1477 1476 1476 1471 1469 1468 1462 1459 1465 1467 1464 1462 1456 1454 1457 1456 1452 1439 1432 1421 1414 1421 1422 1425 1430 1437 1438 1443
1512 1510 1509 1505 1504 1502 1499 1493 1491 1493 1475 1480 1480 1483 1479 1481 1477 1473 1475 1472 1469 1468 1470 1459 1461 1463 1462 1461 1461 1456 1456 1454 1451 1447 1439 1431 1436 1398 1406 1415 1413 1420 1429 1433 1439
1512 1510 1508 1506 1502 1500 1495 1491 1492 1485 1483 1479 1478 1477 1473 1472 1473 1473 1472 1473 1470 1469 1464 1460 1461 1461 1457 1460 1462 1459 1458 1454 1449 1442 1441 1427 1426 1397 1395 1402 1403 1410 1423 1430 1437
1511 1509 1507 1505 1504 1499 1494 1494 1484 1489 1482 1480 1478 1474 1472 1468 1469 1470 1468 1469 1467 1467 1458 1458 1457 1460 1462 1459 1458 1460 1456 1445 1447 1440 1428 1409 1422 1403 1384 1391 1395 1401 1415 1426 1435
1510 1509 1507 1504 1501 1498 1495 1487 1487 1486 1485 1484 1480 1474 1472 1469 1467 1466 1464 1461 1465 1468 1454 1450 1454 1451 1453 1455 1448 1454 1450 1433 1452 1433 1414 1410 1416 1397 1391 1389 1395 1401 1411 1423 1432
1509 1508 1508 1504 1500 1497 1495 1495 1496 1494 1490 1487 1479 1479 1472 1471 1477 1469 1455 1452 1451 1464 1456 1447 1446 1445 1449 1449 1450 1447 1452 1440 1447 1423 1411 1397 1400 1390 1390 1392 1392 1396 1407 1419 1429
1509 1508 1508 1504 1499 1498 1495 1503 1495 1495 1493 1489 1485 1485 1480 1476 1480 1468 1456 1446 1451 1455 1453 1448 1448 1440 1443 1449 1447 1446 1446 1455 1450 1439 1423 1395 1392 1391 1386 1389 1391 1391 1404 1416 1428
1509 1509 1508 1503 1500 1497 1499 1498 1496 1494 1494 1489 1481 1481 1477 1481 1477 1469 1461 1448 1448 1450 1453 1447 1447 1441 1445 1443 1438 1447 1447 1441 1434 1422 1414 1401 1387 1374 1373 1383 1387 1389 1402 1415 1426
1512 1505 1507 1504 1500 1500 1500 1502 1501 1493 1491 1488 1485 1476 1477 1475 1474 1469 1460 1454 1454 1452 1450 1449 1444 1437 1431 1433 1434 1434 1434 1433 1437 1426 1417 1401 1382 1362 1372 1376 1381 1387 1398 1414 1426
1517 1512 1508 1505 1506 1505 1501 1499 1499 1494 1490 1486 1481 1474 1471 1474 1471 1467 1462 1455 1454 1453 1453 1451 1445 1435 1434 1444 1440 1433 1428 1427 1430 1429 1420 1406 1384 1363 1372 1376 1378 1383 1395 1410 1423
1520 1511 1509 1509 1512 1511 1506 1495 1494 1492 1489 1486 1479 1474 1468 1462 1458 1462 1459 1454 1453 1454 1455 1456 1439 1429 1423 1429 1440 1432 1428 1424 1428 1430 1421 1401 1385 1380 1378 1378 1375 1382 1399 1410 1422
1526 1522 1522 1508 1504 1510 1507 1501 1492 1490 1488 1484 1474 1468 1463 1461 1455 1454 1455 1454 1451 1449 1450 1451 1437 1425 1417 1415 1417 1413 1416 1416 1423 1419 1420 1396 1389 1395 1391 1373 1374 1392 1404 1412 1423
1532 1529 1521 1514 1512 1507 1504 1496 1495 1490 1491 1478 1473 1467 1464 1457 1453 1448 1449 1451 1444 1441 1443 1442 1432 1420 1409 1414 1419 1410 1400 1403 1409 1409 1407 1405 1399 1400 1394 1385 1386 1400 1403 1409 1420
1534 1530 1527 1512 1508 1503 1498 1499 1496 1493 1484 1481 1476 1468 1457 1449 1448 1443 1442 1442 1440 1434 1432 1430 1426 1420 1413 1417 1414 1415 1397 1394 1399 1403 1403 1400 1398 1398 1397 1381 1396 1405 1408 1409 1420